Hourly Data Report for October 21, 2013

All times are specified in Local Standard Time (LST). Add 1 hour to adjust for Daylight Saving Time where and when it is observed.

FORT LIARD
NORTHWEST TERRITORIES

60°14'00.000" N
123°28'00.000" W
213.40 m
2201579
71497
WJL

Download Data

Hourly Data (October 2013)
Hourly Data Report for October 21, 2013
Temp Definition
°C
Dew Point Temp Definition
°C
Rel Hum Definition
%
Wind Dir Definition
10's deg

Wind Spd Definition
km/h
Visibility Definition
km
Stn Press Definition
kPa
Hmdx Definition


Wind Chill Definition


Weather Definition


TIME
00:00 8.2 1.6 63   0   98.67     LegendNANA
01:00 7.7 2.3 69 23 2   98.70     LegendNANA
02:00 7.7 1.1 63 7 7   98.78     LegendNANA
03:00 7.2 1.2 66 8 7   98.81     LegendNANA
04:00 7.0 1.1 66 10 7   98.80     LegendNANA
05:00 5.7 1.2 73   0   98.83     LegendNANA
06:00 3.4 0.5 81 11 2   98.82     LegendNANA
07:00 2.3 0.7 89   0   98.84     LegendNANA
08:00 2.8 0.9 87 24 2   98.86     LegendNANA
09:00 3.3 1.0 85   0   98.88     LegendNANA
10:00 4.4 1.8 83   0   98.85     LegendNANA
11:00 6.1 2.3 77 22 11   98.86     LegendNANA
12:00 7.4 2.8 73 22 6   98.84     LegendNANA
13:00 11.3 4.7 64 22 6   98.82     LegendNANA
14:00 14.4 3.9 49 18 7   98.82     LegendNANA
15:00 14.6 2.5 44 21 13   98.80     LegendNANA
16:00 14.9 -2.1 31 24 15   98.80     LegendNANA
17:00 13.2 -2.6 33 23 9   98.82     LegendNANA
18:00 8.4 1.7 63 7 13   98.91     LegendNANA
19:00 6.8 1.1 67 10 6   98.98     LegendNANA
20:00 2.7 0.2 84   0   99.02     LegendNANA
21:00 0.1 -1.4 90   0   99.08     LegendNANA
22:00 -0.5 -2.1 89   0   99.14     LegendNANA
23:00 -1.7 -2.5 94   0   99.20     LegendNANA

Notes on Data Quality.

Legend

  • E = Estimated
  • M = Missing
  • NA = Not Available
  • ‡ = Partner data that is not subject to review by the National Climate Archives
Date modified: